RH
14 17 22 20 19 16 14 9 6 6 6 7 7 6 8 8 8 19 28 35 46 61 64 52 43 38 36 38 42 42 42 39 34 38 50 56 56 62 58 55 49 45 43 46 51 52 54 54 51
20 29 19 16 20 18 12 7 6 7 8 8 8 8 7 8 10 15 23 36 49 58 63 57 48 46 41 43 46 44 42 38 36 41 51 59 57 65 62 60 56 51 48 49 52 52 54 54 57
23 23 17 16 17 18 13 8 7 7 8 7 8 9 9 11 16 18 27 38 55 50 62 59 46 46 46 48 50 45 42 37 37 43 50 60 59 65 67 64 60 57 54 55 56 57 55 55 58
22 18 18 19 18 12 10 9 7 7 8 8 8 8 9 12 18 19 27 40 57 62 62 69 50 45 47 52 54 47 42 39 38 42 52 61 62 65 68 68 64 61 58 59 60 62 61 57 57
21 18 18 18 15 12 10 8 8 9 8 8 8 9 9 14 16 17 26 39 59 70 69 70 67 52 51 54 55 49 45 41 42 44 54 62 64 67 70 68 66 64 61 64 66 62 63 62 58
18 16 20 19 14 11 9 8 9 10 10 10 9 9 10 11 15 18 20 33 52 52 81 77 74 61 58 59 53 53 48 45 46 47 51 60 66 69 70 69 64 64 65 66 68 67 64 66 61
19 18 20 17 16 13 11 9 10 10 10 10 10 11 12 13 18 19 19 22 44 66 90 86 87 73 61 63 56 56 52 49 49 48 50 55 63 66 68 66 64 64 65 65 66 65 63 68 65
17 16 19 17 16 14 10 9 10 11 11 12 14 14 15 15 18 18 16 18 29 65 72 95 96 77 58 59 60 60 57 54 52 52 52 52 57 60 64 64 66 67 69 69 65 64 62 60 67
17 19 21 18 15 13 10 9 10 11 11 13 13 14 15 16 17 16 15 17 21 52 75 71 97 96 67 62 64 65 62 60 58 57 56 55 55 56 58 61 65 69 75 73 68 67 70 67 64
17 20 20 15 13 13 11 10 10 10 12 14 14 14 14 16 16 16 16 17 18 26 68 74 76 98 97 84 70 68 66 63 62 62 60 60 61 61 61 59 63 66 76 80 72 68 71 74 76
17 21 18 16 15 15 13 12 12 11 12 10 12 12 13 15 16 16 17 17 16 20 46 66 70 88 98 98 99 93 77 69 67 68 65 63 64 68 77 79 74 73 75 84 80 72 73 76 80
20 16 16 16 16 14 12 12 12 13 13 12 12 12 12 13 13 15 16 16 16 17 23 67 67 72 88 98 96 99 94 84 75 72 70 71 72 73 86 80 83 80 73 76 78 77 78 76 76
21 18 16 15 14 14 13 12 12 11 11 10 10 11 12 13 14 14 15 14 15 17 22 24 54 81 78 87 93 91 89 93 91 96 87 76 80 77 78 94 80 84 80 77 80 82 82 83 79
22 20 18 17 13 13 14 13 12 12 11 11 11 11 12 13 15 14 14 15 19 24 28 29 27 48 75 85 79 91 97 90 93 89 96 91 89 88 78 82 83 82 84 83 85 82 88 81 84
22 23 19 18 18 16 14 16 16 15 14 13 12 12 12 13 14 14 15 21 26 31 35 44 47 43 49 74 80 84 78 86 89 90 84 82 79 82 92 84 85 73 85 82 84 81 89 87 89
28 27 34 24 19 17 16 23 15 14 13 13 12 13 13 14 14 15 22 32 32 36 44 54 59 61 45 36 73 78 85 82 85 89 91 84 77 67 68 78 82 81 81 79 83 72 89 86 90
32 41 38 31 21 19 18 22 15 14 14 12 12 13 13 14 15 21 35 36 40 42 52 58 61 63 65 46 28 36 75 78 84 83 84 90 84 78 56 70 72 61 76 82 89 84 79 82 85
38 33 29 32 25 21 20 20 15 14 13 13 13 12 12 13 16 36 38 43 48 53 60 63 67 69 67 57 51 42 31 35 70 80 88 85 86 84 79 82 92 71 72 65 87 80 76 83 84
30 32 35 28 23 28 30 29 17 14 15 14 14 13 12 14 30 37 45 50 56 60 67 69 67 59 59 62 70 69 66 65 56 62 73 86 83 81 92 87 90 98 100 66 73 72 80 86 91
34 42 45 40 30 29 35 45 43 15 14 13 13 12 14 16 30 39 44 50 59 63 68 66 65 54 56 66 66 67 68 63 61 53 68 75 70 80 81 96 84 97 99 93 74 57 72 98 93
34 38 46 48 38 34 39 55 44 23 14 12 12 11 14 26 34 39 44 51 57 61 71 77 75 71 71 77 78 83 81 74 67 46 49 67 78 68 79 87 91 92 84 89 95 90 65 77 97
45 35 40 47 56 81 44 83 47 25 19 13 12 14 28 36 38 42 47 52 55 63 72 81 82 78 84 83 81 88 98 98 74 77 67 51 77 78 70 65 74 94 82 89 76 95 94 96 94
43 56 62 73 77 66 61 65 44 24 28 22 22 29 38 42 44 46 50 54 58 67 78 86 78 74 73 82 87 94 93 97 96 80 61 65 65 80 73 78 75 85 82 80 47 92 99 99 93
57 72 67 70 72 94 58 53 61 42 26 18 26 42 44 46 49 48 51 56 64 72 81 84 75 78 88 98 98 98 98 94 95 98 89 59 61 66 77 67 71 86 93 87 81 60 77 96 82
55 91 92 92 93 68 36 53 60 37 47 24 55 48 47 49 50 50 55 63 69 76 84 85 83 89 99 95 98 100 100 100 99 97 98 85 59 76 87 76 72 87 88 84 83 79 99 83 65
53 78 74 90 85 57 41 90 73 70 56 65 73 61 48 49 52 55 59 67 72 80 88 94 91 97 99 91 97 100 100 100 99 98 99 98 76 83 73 83 78 76 81 98 99 96 95 64 60
75 91 57 67 71 94 74 56 56 70 61 65 73 62 45 47 50 55 58 67 74 83 89 98 96 99 98 95 99 100 100 100 100 100 99 98 87 70 91 93 88 83 81 86 100 96 78 64 51
50 46 97 94 88 87 46 56 84 68 64 52 54 45 42 45 49 54 59 68 77 85 91 98 100 100 99 95 98 100 100 99 100 100 99 100 87 92 90 81 87 84 84 86 98 88 81 77 81
36 41 80 97 55 78 60 96 95 92 82 56 42 40 44 47 53 58 63 70 78 86 94 98 99 96 99 98 96 96 98 98 100 99 99 100 98 94 88 91 93 96 92 95 97 99 100 98 80
28 35 70 98 94 90 82 77 84 88 63 36 32 39 45 52 58 63 68 73 81 89 96 99 100 98 100 100 99 96 94 89 100 99 98 100 88 68 91 89 88 98 99 98 98 98 98 83 83
Wind_Speed
4 1 5 10 6 7 14 17 20 7 3 10 8 4 10 8 7 5 9 12 9 5 6 9 21 21 20 19 18 16 14 13 13 13 12 14 15 12 9 8 8 8 9 9 10 9 9 9 9
5 2 9 9 7 10 12 13 7 17 17 9 1 6 8 6 6 4 7 14 8 2 8 10 21 24 22 21 19 17 15 14 14 14 13 14 15 12 10 9 8 8 8 9 9 9 8 8 8
6 2 10 5 10 13 15 5 5 12 6 1 0 4 5 3 9 3 8 11 7 0 10 13 20 27 25 22 20 18 16 15 15 15 15 16 17 14 11 10 10 9 8 8 8 8 8 8 8
3 6 9 8 17 18 20 21 7 4 5 3 6 5 5 4 2 2 6 9 7 1 6 17 14 26 26 23 21 19 18 16 16 16 16 17 17 16 13 12 11 11 10 9 8 9 9 9 9
10 11 11 13 18 19 18 22 6 3 6 6 8 10 11 7 7 2 5 9 8 2 8 15 13 24 25 24 22 20 18 18 17 17 16 18 18 16 15 14 13 13 11 11 10 10 10 10 10
13 11 12 13 18 20 17 9 3 3 9 14 15 15 14 12 6 2 4 9 13 2 7 11 15 18 24 24 23 21 20 19 18 17 17 18 19 17 16 16 15 14 14 13 11 11 11 12 12
15 12 18 20 18 20 20 29 6 5 9 14 12 11 4 7 4 4 6 6 8 12 8 12 14 17 23 26 25 23 21 20 18 17 17 18 19 18 18 17 17 17 16 15 14 12 12 13 13
19 12 22 19 18 23 21 14 3 4 10 4 2 3 8 7 2 8 8 7 8 10 8 11 15 14 22 28 27 25 23 21 20 19 18 19 19 18 19 18 19 19 18 17 15 14 13 13 14
19 12 15 23 22 21 24 12 5 10 10 8 8 15 17 15 12 11 9 9 9 9 12 10 15 15 19 27 28 26 25 24 22 22 20 20 21 20 20 20 20 21 21 19 18 16 15 14 15
18 13 22 22 22 21 21 21 15 12 16 15 14 16 14 14 13 11 11 11 11 10 12 9 12 16 15 19 24 27 26 26 25 25 23 23 22 21 21 21 23 23 23 22 21 18 17 17 18
22 20 21 27 33 34 26 20 24 22 18 19 16 16 15 12 11 12 13 13 13 7 8 12 11 12 19 22 19 22 27 28 28 26 25 25 24 21 19 19 20 23 24 26 24 22 22 20 19
23 28 29 31 34 32 24 27 24 27 24 22 19 16 14 14 15 14 15 14 13 7 6 6 11 12 11 18 27 22 18 21 27 28 27 25 23 24 22 20 22 20 22 27 27 24 25 23 21
23 23 31 31 32 31 29 25 28 29 29 25 22 21 18 16 13 14 12 13 9 5 2 6 3 7 11 14 18 17 20 23 23 21 21 25 26 23 24 23 22 23 19 22 24 24 22 21 20
27 32 33 34 30 29 25 27 29 30 30 28 26 26 20 16 15 13 11 8 4 3 3 9 12 9 12 12 15 21 21 21 23 26 26 26 25 24 27 27 25 24 24 22 21 21 25 23 21
27 25 22 23 31 30 31 31 27 31 31 31 25 20 19 15 16 12 9 5 0 2 5 2 7 11 16 16 13 15 18 19 22 24 26 30 34 34 32 31 29 28 24 22 24 25 25 25 25
25 26 24 22 26 27 26 34 20 28 31 31 30 21 18 17 14 12 7 4 2 3 5 4 7 10 13 17 20 21 19 20 24 26 25 30 33 36 41 38 33 33 31 29 30 28 30 29 27
18 22 27 32 26 26 25 32 25 30 34 18 24 22 18 17 15 10 8 5 2 3 3 5 7 7 11 15 17 22 26 25 23 28 30 30 36 34 36 38 39 40 38 31 30 30 34 31 29
23 22 25 27 24 25 26 27 19 27 17 13 16 18 19 17 12 16 9 6 2 2 3 5 7 10 13 14 15 17 21 28 31 29 29 31 34 38 33 36 38 40 40 40 36 35 33 32 27
27 27 30 28 27 29 24 23 21 19 25 16 21 22 18 16 18 14 9 6 2 4 5 7 10 12 14 15 15 16 19 19 22 28 33 31 36 38 37 37 39 42 42 41 42 37 36 33 29
24 26 25 25 26 24 20 19 28 19 21 23 24 24 20 16 16 13 8 4 3 6 9 11 12 14 15 16 18 24 28 30 29 28 28 34 40 38 40 38 40 45 47 46 45 41 37 36 29
25 22 22 24 23 26 19 17 24 29 24 27 27 26 26 21 18 12 7 4 5 7 11 13 15 17 17 17 20 21 24 30 29 34 38 34 39 46 43 41 41 46 35 25 40 38 36 36 32
18 20 23 21 14 11 10 8 21 26 21 23 23 17 24 20 14 11 6 5 8 10 11 13 16 18 18 20 22 24 28 30 30 27 28 33 34 42 44 48 48 47 40 42 30 33 36 33 34
18 12 13 16 18 14 22 10 15 25 25 19 12 21 23 19 13 9 6 8 9 11 13 16 18 18 20 21 24 26 29 32 35 33 40 34 33 45 45 48 46 47 44 51 42 36 35 37 30
7 5 10 12 11 9 23 15 12 13 12 16 17 27 21 16 14 8 9 11 13 14 15 19 21 22 21 22 24 27 30 32 36 36 37 45 40 36 49 48 45 43 39 43 45 46 43 48 30
11 1 4 6 7 11 8 12 17 9 19 15 22 22 19 17 15 9 12 14 15 17 19 23 25 26 24 25 25 26 29 30 32 35 38 39 47 40 34 44 42 41 40 41 47 46 48 33 32
18 11 5 5 4 6 4 4 4 5 16 31 26 10 18 19 14 11 13 15 16 19 21 26 27 28 27 27 27 25 26 27 27 30 34 38 48 40 29 39 37 34 37 40 47 42 43 36 30
5 10 20 14 12 5 6 5 4 6 20 17 16 12 15 19 15 13 13 15 17 19 21 25 28 29 28 27 28 26 24 26 24 24 26 34 37 43 29 35 31 29 35 41 44 42 41 38 42
15 7 5 6 4 4 5 11 1 12 15 15 16 14 14 13 15 14 14 15 16 18 19 22 27 31 30 28 27 28 25 25 25 23 19 21 25 27 32 32 29 28 34 40 43 36 41 38 34
15 15 4 4 7 4 4 2 12 12 15 9 11 14 17 17 14 14 15 16 18 20 21 25 27 32 33 30 28 27 27 23 25 23 20 19 22 27 32 34 31 30 33 34 41 41 40 40 33
6 8 5 4 2 2 2 2 9 6 7 5 9 13 14 16 17 17 17 18 20 21 24 26 29 30 33 32 30 29 26 24 23 22 21 16 16 24 28 34 32 32 34 35 37 39 36 35 32
Wind_Direction
239 135 348 284 249 226 265 263 268 101 129 75 35 322 348 333 336 57 97 32 31 290 247 218 203 198 193 190 191 194 194 196 197 200 202 203 198 194 193 191 187 185 182 182 184 189 193 196 199
192 268 268 271 247 268 265 271 49 59 70 89 23 292 267 279 64 71 22 353 18 338 274 232 210 206 200 197 198 197 196 199 201 201 204 207 205 203 203 197 195 200 199 193 194 201 203 205 205
146 207 263 232 237 250 275 347 51 84 73 49 352 171 318 358 75 57 356 349 357 255 260 262 210 208 205 202 203 201 200 198 202 202 205 208 207 209 212 208 204 203 211 214 209 210 215 214 212
306 224 251 257 260 268 281 306 99 120 143 232 269 286 205 211 78 29 347 350 347 340 219 256 220 205 206 206 205 205 204 202 204 203 204 207 208 213 217 218 215 214 216 217 218 226 228 225 224
259 264 245 251 258 266 267 275 127 168 296 250 208 256 281 206 179 187 357 331 326 80 229 239 245 213 211 209 207 207 208 207 205 204 204 208 210 214 221 224 224 221 221 222 223 227 233 237 233
248 248 256 255 259 260 260 272 27 261 250 259 267 260 262 276 169 224 349 335 321 283 266 244 244 223 217 213 208 209 211 210 207 206 206 210 214 218 222 227 228 227 223 224 233 239 239 240 236
252 269 261 268 276 285 296 301 206 245 275 263 280 264 246 267 127 346 334 321 309 308 191 258 250 238 224 216 210 210 213 214 211 212 212 214 215 219 224 227 229 228 226 229 234 239 244 247 242
244 267 270 272 273 275 283 289 351 313 272 274 337 225 230 200 352 328 318 296 273 280 266 219 264 243 224 214 212 212 214 214 214 216 215 217 219 221 225 227 229 231 230 231 236 242 240 243 243
255 256 260 260 262 272 275 297 293 286 271 262 272 244 265 287 310 310 297 280 270 274 285 238 224 252 224 212 215 214 214 215 215 217 217 219 219 219 222 225 227 229 232 233 240 242 243 242 241
240 248 244 263 284 293 302 301 297 247 259 231 235 256 249 255 276 292 286 276 264 277 245 280 260 228 214 214 227 220 219 219 219 219 220 221 221 223 226 228 229 226 231 234 238 242 241 239 241
249 246 261 274 290 303 304 290 290 287 270 258 267 261 260 253 254 264 270 270 266 246 283 281 290 266 223 197 217 228 225 223 223 224 226 224 224 222 226 229 231 230 230 232 236 239 237 236 240
262 260 264 276 283 287 290 296 272 272 276 274 267 269 268 262 257 251 249 256 264 262 271 261 277 267 260 214 212 214 217 232 233 230 230 230 226 220 218 225 233 237 244 239 238 241 244 242 241
268 276 268 268 276 272 286 269 277 268 275 269 259 257 249 240 244 246 246 247 248 235 229 211 117 262 259 235 226 229 226 220 230 228 237 231 227 222 214 223 223 236 237 240 235 236 245 243 244
281 283 283 284 288 286 280 274 269 264 268 264 261 253 244 223 230 228 224 236 213 249 324 269 245 214 198 246 253 233 226 228 233 227 219 220 217 230 220 213 221 229 237 234 230 228 238 242 246
271 265 274 266 271 269 269 272 255 267 260 260 245 240 235 226 218 212 211 177 240 263 255 297 311 283 228 209 213 254 253 240 236 246 242 238 224 211 214 211 221 220 228 232 227 220 234 234 234
274 275 276 267 270 265 243 262 257 266 247 240 247 240 223 224 211 189 172 157 265 273 284 292 282 269 271 237 223 219 224 250 245 235 244 249 244 230 223 216 208 212 214 227 234 223 224 229 234
254 264 267 279 270 269 249 255 249 252 261 242 225 234 220 202 198 182 155 162 188 276 295 307 306 300 270 272 258 243 231 227 240 245 235 241 252 253 240 228 228 224 216 210 226 223 224 227 232
271 268 272 271 273 270 260 265 261 245 241 210 242 222 206 214 183 142 153 141 134 318 347 321 304 290 288 288 287 279 267 248 238 239 245 239 246 253 250 232 220 235 231 217 219 228 224 225 225
268 270 280 281 287 298 293 312 252 231 249 211 213 229 219 204 137 133 121 112 92 330 334 320 322 309 301 297 283 276 263 267 272 247 245 240 242 245 246 245 233 229 229 223 221 224 223 217 214
278 273 275 272 285 282 313 306 294 259 262 220 223 225 210 187 135 124 107 73 18 359 325 338 334 324 315 308 289 276 271 258 242 232 236 242 237 245 240 242 239 232 232 226 224 224 220 219 219
270 267 277 280 301 302 302 280 275 280 262 258 232 232 198 146 130 120 95 47 7 6 352 342 330 326 322 314 303 291 279 272 274 256 241 236 240 236 242 241 241 239 242 227 234 227 221 215 213
273 259 270 280 284 271 321 284 270 278 268 237 225 204 125 117 109 95 74 33 26 8 345 333 327 329 327 311 302 296 293 286 268 247 249 255 250 236 239 242 241 241 232 222 225 238 227 218 215
266 342 298 276 272 284 267 263 269 252 254 251 147 124 107 99 96 84 61 34 26 6 353 334 323 327 322 314 310 308 298 289 285 272 249 243 241 243 236 237 234 236 233 235 235 221 236 222 216
151 308 301 276 259 247 253 237 277 286 249 157 138 107 116 119 93 69 47 34 19 0 350 330 337 338 333 327 319 310 302 294 286 278 268 245 245 255 238 241 235 235 237 240 234 235 236 217 208
167 160 247 224 215 248 244 236 249 317 352 148 100 134 127 105 89 53 33 25 12 2 350 342 345 340 333 325 323 318 312 298 287 281 275 257 243 253 258 233 230 228 234 235 231 233 219 208 204
201 194 222 247 249 277 180 249 224 34 86 70 93 81 100 91 81 58 38 23 10 1 353 344 346 337 327 332 330 328 321 310 297 285 276 270 249 248 248 231 232 231 233 235 222 230 221 208 223
197 215 234 275 286 281 205 210 201 177 104 106 112 112 82 77 62 47 35 23 11 2 357 349 340 339 334 332 335 336 332 327 309 293 285 272 261 249 250 243 243 240 238 236 228 229 223 227 233
208 175 207 210 263 256 237 204 74 175 141 130 125 100 76 64 49 37 29 21 11 2 353 351 344 345 343 338 339 342 341 334 322 306 293 275 259 250 245 249 248 240 236 231 224 236 235 236 239
207 222 195 274 243 265 318 78 38 49 56 81 93 66 56 44 35 26 24 22 12 1 356 348 349 349 350 347 345 343 343 338 327 306 291 254 248 246 237 235 238 238 232 225 232 232 227 223 219
242 231 191 247 310 227 357 349 114 109 163 142 97 70 61 47 30 20 16 14 8 1 359 350 352 356 357 352 353 348 340 346 339 315 311 284 249 248 243 240 236 230 225 227 218 210 228 224 213